020912 695  0.2-  0.2+    031021 H41  0.6-  1.2+    031117 213  0.6-  1.3-  

020912 695  0.6-  0.3+    031021 H41  0.3-  0.8+    031117 213 (1.2-  3.4+) 

020912 695  0.7-  0.5+    031022 H41  0.5-  1.2+    031119 A46  1.0-  0.3+  

020912 695  0.6-  0.7+    031022 H41  0.7-  0.8+    031119 A46  0.6-  0.1+  

020912 695  0.3-  0.5+    031022 H41  0.1-  1.0+    031119 A46  0.5-  0.3-  

020912 246  0.0   0.9+    031022 206  0.8-  0.6+    031119 A46  0.2-  0.3+  

020912 246  1.3-  0.8+    031022 206  0.2+  0.1-    031119 A46  0.2+  0.8+  

020912 246  1.1-  0.9+    031022 206  0.8-  0.1+    031119 A46  1.1+  0.4+  

020912 246  0.2+  1.0+    031022 235  1.2-  1.0+    031119 204  1.3-  0.8+  

020913 695  1.0-  1.2+    031023 750  0.0   0.3-    031119 204  1.0-  1.0+  

020913 695  0.1+  1.4+    031023 750  0.0   0.3-    031119 204  0.7-  1.3+  

020913 695  0.3-  1.4+    031023 750  0.2+  0.5-    031120 H41 (5.1-  2.1+) 

020913 695  0.9-  0.0     031023 750  0.4+  0.5-    031120 H41 (4.6-  2.1+) 

020913 695  0.5-  0.7+    031023 H41  0.4-  1.2+    031120 H41 (5.7-  2.5+) 

020913 695  0.8-  0.6+    031023 H41  0.4-  1.6+    031120 H41 (1.1-  2.4+) 

020913 695  1.4-  0.4+    031023 360  0.3-  0.4-    031120 H41 (4.8-  2.3+) 

020913 695  0.5-  0.5+    031023 349  0.4-  0.4-    031120 H41 (3.6-  0.7+) 

020914 695  1.0-  0.5+    031023 360  0.3-  0.3-    031121 H41 (5.8-  1.0+) 

020914 695  1.1-  0.5+    031023 349  0.2-  0.5-    031121 H41 (5.7-  1.1+) 

020914 695  1.4-  0.5+    031023 379  0.2+  0.1-    031121 H41 (5.1-  0.6+) 

020914 695  1.3-  0.3+    031023 349  0.1-  0.5-    031121 H41 (6.5-  1.4-) 

020914 695  0.8-  0.9+    031023 379  0.6+  0.6-    031122 H41 (6.8-  0.7+) 

020914 644  1.0-  0.4+    031023 349  0.0   0.4-    031122 H41 (6.4-  0.7+) 

020914 644  1.1-  0.5+    031023 379  0.2-  0.1+    031122 H41 (5.3-  0.7-) 

020914 695  1.3-  0.0     031023 213  0.2-  0.3-    031122 H41 (5.5-  0.2+) 

020914 644  1.1-  0.6+    031023 127  0.2-  0.1+    031122 H41 (5.4-  0.4+) 

020914 695  0.6-  0.3+    031023 A18  0.2-  0.5-    031122 H41 (2.5-  0.7+) 

020914 695  0.2-  0.2+    031023 127  0.1+  0.2+    031122 H41 (2.9-  2.0+) 

020914 204  1.0-  0.9+    031023 127  0.0   0.0     031122 H41 (6.0-  0.5+) 

020914 204  0.3-  0.5+    031023 127  0.1-  0.0     031123 900 (5.8-  0.6+) 

020914 204  1.7-  0.0     031023 213  0.3-  0.3-    031123 900 (5.4-  0.9+) 

020914 204  0.3-  0.3+    031023 213  0.0   0.2-    031123 349 (2.8-  0.7+) 

020915 695  1.1-  0.5+    031023 127  0.1+  0.2+    031123 349 (2.4-  0.5+) 

020915 695  0.6-  0.7+    031023 A18  0.3-  0.2-    031123 349  2.2-  0.5+  

020915 695  1.3-  0.4+    031023 A18  0.3-  0.0     031123 349 (2.7-  0.1+) 

020915 695  0.9-  0.6+    031023 A32  0.3-  0.0     031123 360  1.5-  0.4+  

020915 695  0.9-  0.3+    031023 A32  0.1+  0.2-    031123 360  2.2-  0.6+  

020915 695  0.9-  0.2+    031023 A32  0.1+  0.1-    031123 360  2.0-  0.4+  

020915 695  1.2-  0.2+    031023 A32  0.8-  0.1-    031123 D70 (5.3-  0.2+) 

020915 695  1.3-  0.3+    031023 174  1.0-  0.2-    031123 D70 (3.6-  0.2+) 

020916 695  0.6-  0.4+    031023 174  0.2-  0.3-    031123 D70  2.0-  0.0   

020916 695  0.8-  0.6+    031023 174  0.0   0.3-    031123 D70 (6.4-  0.5-) 

020916 695  0.9-  0.5+    031023 174  0.2-  0.3-    031124 049  0.4+  1.5+  

020916 695  1.0-  0.7+    031023 174  0.4-  0.1-    031124 049  0.1+  2.0+  

020916 695  0.4-  0.6+    031024 H41  0.5-  1.3+    031124 049 (2.1+  3.0+) 

020916 695  0.7-  0.4+    031024 H41  1.0-  1.4+    031124 J95  1.5-  0.7+  

020916 695  0.0   0.6+    031024 H41  1.0-  0.9+    031124 J95  0.9-  0.7+  

020916 695  0.7-  0.4+    031024 379  1.4-  0.3-    031124 J95  0.9-  0.6+  

021002 360  0.2-  0.2+    031024 379  0.5-  0.2-    031125 H41 (6.2-  2.7+) 

021002 360  0.9-  0.4+    031024 379  1.5-  0.0     031125 H41 (4.3-  2.0+) 

021003 695  1.6-  0.1-    031024 A32  0.7-  0.2-    031125 H41 (6.5-  2.8+) 

021003 695  1.0-  0.1+    031024 A32  0.6-  0.1-    031125 H41 (5.3-  2.6+) 

021003 695  0.8-  0.2+    031024 A32  0.6-  0.2-    031125 H41 (3.8-  3.2+) 

021003 695  1.0-  0.1+    031024 A32  0.5-  0.1-    031125 H41 (5.2-  3.3+) 

021003 695  0.2+  0.8+    031024 A32  0.7-  0.1-    031125 H41 (5.6-  3.3+) 

021003 695  0.3-  0.5+    031024 A46  0.5-  0.4-    031125 H41 (3.3-  0.8+) 

021003 695  0.7-  0.5+    031024 A46  0.4-  0.2-    031125 084 (3.9-  0.4+) 

021003 695  1.2-  0.2+    031024 A46  0.2-  0.4-    031125 442 (2.5-  2.0+) 

021003 695  0.4-  0.6+    031024 A46  0.3-  0.3-    031125 442 (0.8-  3.3+) 

021004 695  1.2-  0.4+    031024 A46  0.1-  0.4-    031125 442 (0.8-  3.0+) 

021004 695  0.4-  0.7+    031024 A46  0.2-  0.6-    031125 442  1.3-  1.4+  

021004 695  1.3-  0.4+    031024 445  1.7+  0.8-    031126 D83  0.8-  1.4+  

021004 695  0.9-  0.6+    031024 445  1.9+  0.7-    031126 D83 (2.9-  0.8+) 

021004 695  0.8-  0.3+    031024 445  1.9+  0.9-    031126 D83  1.0-  1.5+  

021004 695  0.3-  0.9+    031025 945  0.2-  0.3-    031127 J93 (2.6-  4.0+) 

021004 695  1.1-  0.6+    031025 945  0.3+  0.1-    031127 J93 (0.3-  4.4+) 

021004 695  0.5-  0.8+    031025 945  0.1-  0.0     031127 J93 (3.7-  2.3+) 

021004 246  0.1+  1.0+    031025 945  0.1+  0.1-    031129 H41 (6.0-  0.4+) 

021004 246  0.2+  0.7+    031025 945  0.1-  0.3-    031129 H41 (4.0-  1.6+) 

021004 246  0.2-  0.9+    031025 557  0.1-  0.3-    031129 H41 (3.5-  2.3+) 

021004 246  0.7-  0.7+    031025 557  0.2-  0.4-    031129 H41 (3.0-  0.6+) 

021004 246  2.1-  1.1+    031025 557  0.1-  0.4-    031130 235 (4.6+  2.8+) 

2003/                     031025 557  0.0   0.4-    031206 349 (3.6-  1.9+) 

030708 599  0.7-  0.0     031025 557  0.6-  0.3-    031206 349 (1.3-  2.3+) 

030708 599  1.0+  1.0+    031025 557  0.1-  0.3-    031208 204  0.9+  2.2+  

030708 599  0.4-  0.4+    031025 557  0.2-  0.3-    031208 204  1.3+  1.8+  

030708 599  0.5-  0.7+    031025 235  1.2+  0.7+    031208 204 (1.8+  3.6+) 

030803 J95  0.4-  1.4+    031025 H41  0.2-  0.2-    031227 349 (3.8+  1.9-) 

030803 J95  1.0-  0.3+    031025 H41  0.1+  0.2-    031227 349 (3.8+  0.1-) 

030807 213  0.7-  1.2+    031025 H41  0.1+  0.4-    031227 349 (3.1+  2.0-) 

030807 213  1.3-  0.3+    031025 850  0.1-  0.0                             

030812 204  0.4+  0.5+    031025 850  0.1+  0.4+                            





  17P/Holmes 

Epoch 2007 May 20.0 TT = JDT 2454240.5  

T 2007 May 4.50037 TT                                   Nakano

q   2.0531696            (2000.0)            P               Q

n   0.14325071     Peri.   24.25856     +0.97565085     +0.12679004

a   3.6174693      Node   326.86754     -0.21244479     +0.74914017

e   0.4324293      Incl.   19.11318     +0.05452180     +0.65016404

P   6.88

From 142 observations 1964-2001, mean residual 0".75.

   Nongravitational parameters A1 = +0.17 +/- 0.02, A2 = +0.0290 +/- 0.0004.

Residuals in seconds of arc 

1964/                     861227 691  0.6-  1.2-    000927 360  0.1-  0.2+  

640716 689  1.6+  0.6-    861227 691  0.6-  0.4-    000927 360  0.1-  0.4+  

640716 689  1.1+  0.1+    861227 691  0.5-  0.9-    000927 349  1.4-  0.1-  

640717 689  0.1-  1.1-    861229 691  0.2+  1.3-    000927 349  0.7-  0.6+  

640717 689  0.8+  1.0-    861229 691  0.3+  0.5-    000927 349  0.3-  0.1-  

640911 689  0.7+  0.3-    861229 691  0.2-  0.8-    001004 704  1.6-  0.5-  

640911 689  1.4+  0.9-    1993/                     001004 704  2.0-  0.2+  

640929 689  0.2-  0.2+    930524 372 (2.2-  0.5+)   001004 704  0.7+  0.6+  

640929 689  0.2+  0.3-    930525 372 (4.5-  2.2-)   001004 704  0.6-  0.0   

641028 689  0.1+  0.0     930721 691  0.8-  0.3-    001004 352  1.4-  0.3-  

641028 689  1.4-  1.1-    930722 360  0.4+  0.4+    001004 352  0.4-  0.7-  

641128 689  0.8+  0.0     930722 360  0.4+  0.2+    001006 349  0.4-  0.2-  

1965/                     930822 691  1.1-  0.1+    001006 349  0.9-  0.1+  

650102 689  2.2-  0.2-    930822 691  1.1-  0.3-    001007 704  0.3-  0.6-  

1971/                     930822 691  0.7-  0.5-    001007 704  0.1-  0.3-  

710620 693  0.9+  1.1+    930824 360  0.4+  0.5+    001007 704  2.0-  0.0   

710627 691  0.0   0.7+    930824 360  0.5-  0.4+    001026 402  0.7+  0.2-  

710627 691  0.2+  1.4+    930915 658  0.2-  0.6+    001026 402  0.2+  0.1-  

710921 691  1.2-  0.0     930915 658  0.3-  0.1+    001026 402  0.6+  0.2+  

710921 691  1.4-  0.1-    930915 658  0.2-  0.6+    001026 900  0.5-  0.1-  

710922 691  0.9-  0.3-    930926 360  0.4-  0.0     001026 900 (2.3+  0.4-) 

711015 691  0.7+  0.9+    930926 360  0.1+  0.2-    001118 349  1.4+  1.1+  

711016 691  1.0+  0.1+    931011 360  0.3-  0.0     001118 349  0.1+  0.4-  

1972/                     931011 360  1.1+  0.0     001118 349  0.2+  0.4+  

720913 691  0.8-  0.8-    931019 360  0.0   0.0     001122 360  0.6+  0.0   

720913 691  0.2-  0.3-    931019 360  0.2+  0.1-    001122 360  0.3+  0.2-  

721003 691  0.0   0.0     931020 657  0.1+  0.3-    001123 900  0.9+  0.0   

721003 691  0.1-  0.7+    931020 657  0.5-  0.1+    001123 900  1.5+  1.7-  

721213 691  0.2-  0.4+    931020 657  0.8+  0.7+    001204 402  0.1-  0.1+  

721213 691  1.1-  0.7+    1999/                     001204 402  0.5+  0.5+  

1973/                     990607 809  0.3-  0.1+    001204 402  0.0   0.1-  

730130 691  0.4+  0.6+    990607 809  0.7-  0.4+    001205 704  0.5+  0.1+  

730130 691  1.0+  2.2+    990607 809  0.5-  0.0     001205 704  1.9+  0.6-  

1979/                     2000/                     001205 704 (2.3+  0.4-) 

790720 801 (5.3-  2.6+)   000809 704  0.7-  0.9-    001205 704  1.4+  0.5-  

790730 372 (3.3-  6.6+)Y  000809 704  0.5-  0.5-    001207 704  1.4+  0.1+  

790731 801 (5.7+ 11.6+)   000809 704  1.8-  0.1-    001207 704  1.3+  0.7-  

790901 801  1.6+  1.3+    000809 704 (2.5-  0.1-)   001207 704  1.8+  0.9-  

